Location: Follega
(52.8850°N, 5.7362°E)
Time: 23:53:10
(UTC+00:00)

Cosmos 2297 Rocket - Pass Details

Date: 01 October 2020
Orbit: 838 x 845 km, 71.0° (Epoch: 22 October)

Event Time Altitude Azimuth Distance (km) Brightness Sun altitude
Rises 19:19:14 0° 316° (NW) 3,414 6.5 -19.5°
Reaches altitude 10° 19:23:09 10° 343° (NNW) 2,479 5.1 -20.1°
Maximum altitude 19:25:52 13° 12° (NNE) 2,241 4.5 -20.5°
Drops below altitude 10° 19:28:35 10° 41° (NE) 2,478 4.5 -20.9°
Enters shadow 19:29:17 - 47° (NE) 2,605 4.5 -21.0°
